[[{"header":{"parameterUnit":"m.s-1","parameterCategory":1,"la1":30.2991,"la2":30.254,"lo1":-89.0895,"lo2":-89.0444,"dy":0.0017,"dx":0.0017,"nx":28,"ny":28,"refTime":"2024-11-25T03:00:00:Z","depth":0,"parameterNumber":2,"parameterNumberName":"U-component_of_WINDS"},"data":[0,0,0,0,0,0,0,0,0,0,0,0,0,0,0,0,0,0,0,0,0,0,0,0,0,0,0,0,0,0,0,0,0,0,0,0,0,0,0,0,0,0,0,0,0,0,0,0,0,0,0,0,0,0,0,0,0,0,-0.1696,-0.1696,0,-0.1672,-0.1672,-0.1671,-0.1699,-0.17,-0.1701,-0.1702,-0.1672,-0.167,-0.1669,0,0,0,0,0,0,0,0,0,0,0,0,0,-0.176,-0.1758,-0.1696,-0.1696,-0.1695,-0.1672,-0.1672,-0.1671,-0.1699,-0.17,-0.1701,-0.1703,-0.1673,-0.1671,-0.1669,0,0,0,0,0,0,0,0,0,0,0,0,0,-0.1733,-0.1758,-0.1696,-0.1706,-0.1707,-0.1672,-0.1672,-0.1671,-0.1699,-0.17,-0.1702,-0.1703,-0.1673,-0.1671,-0.1668,-0.162,0,0,-0.166,-0.1659,0,0,0,0,0,0,0,0,-0.1735,-0.1731,-0.1705,-0.1706,-0.1706,-0.169,-0.1683,-0.1654,-0.1698,-0.1702,-0.1702,-0.1704,-0.1677,-0.1674,-0.1666,-0.1619,-0.1617,-0.166,-0.1658,-0.1657,-0.1656,0,0,0,0,0,0,0,-0.1737,-0.1732,-0.1686,-0.1705,-0.1705,-0.171,-0.1708,-0.1678,-0.168,-0.1701,-0.1703,-0.17,-0.1677,-0.1668,-0.1665,-0.1617,-0.166,-0.1658,-0.1656,-0.1655,-0.1528,-0.1526,0,0,0,0,0,0,-0.1738,-0.1733,-0.1687,-0.1686,-0.1725,-0.1708,-0.1706,-0.1694,-0.1681,-0.168,-0.1699,-0.1702,-0.1672,-0.1668,-0.1664,-0.1606,-0.1657,-0.1655,-0.1653,-0.1529,-0.1527,-0.1525,0,0,0,0,0,0,-0.1739,-0.1734,-0.1688,-0.171,-0.1705,-0.1705,-0.1691,-0.1692,-0.1684,-0.1679,-0.1679,-0.169,-0.1673,-0.1668,-0.1631,-0.1606,-0.1653,-0.1651,-0.1531,-0.1529,-0.1526,-0.1491,0,0,0,0,0,0,-0.1741,-0.1734,-0.1717,-0.171,-0.1703,-0.1657,-0.169,-0.1691,-0.1679,-0.1683,-0.167,-0.167,-0.1674,-0.1635,-0.1628,-0.1603,-0.1649,-0.1534,-0.153,-0.1527,-0.1494,-0.1487,-0.1481,0,0,0,0,0,-0.1743,-0.1707,-0.1716,-0.171,-0.1683,-0.1656,-0.1652,-0.1659,-0.1677,-0.166,-0.1656,-0.167,-0.1609,-0.1631,-0.1624,-0.1597,-0.1535,-0.1531,-0.1527,-0.1497,-0.1489,-0.1481,0,0,0,0,0,0,-0.171,-0.1706,-0.1716,-0.1677,-0.1667,-0.166,-0.1638,-0.165,-0.1632,-0.1636,-0.1643,-0.164,-0.1601,-0.1595,-0.1619,-0.1549,-0.1575,-0.157,-0.1555,-0.1546,-0.154,-0.1542,-0.1647,0,0,0,0,0,-0.1699,-0.1679,-0.1676,-0.1641,-0.1636,-0.1638,-0.1626,-0.1632,-0.1621,-0.1616,-0.161,-0.1597,-0.1575,-0.156,-0.154,-0.1493,-0.149,-0.1471,-0.1465,-0.1459,-0.1454,-0.1428,-0.1419,-0.1512,-0.1512,-0.1512,0,0,-0.1674,-0.167,-0.1656,-0.1635,-0.1627,-0.1605,-0.1634,-0.1609,-0.1591,-0.1612,-0.1577,-0.1572,-0.1558,-0.1515,-0.1497,-0.1509,-0.1428,-0.1454,-0.145,-0.1448,-0.1423,-0.1414,-0.1406,-0.1509,-0.151,-0.151,0,0,-0.1619,-0.1613,-0.1584,-0.1576,-0.1565,-0.1566,-0.1559,-0.1551,-0.1549,-0.1514,-0.1529,-0.1507,-0.1469,-0.1458,-0.1447,-0.1385,-0.1397,-0.1378,-0.1344,-0.1318,-0.1311,-0.1305,-0.1282,-0.1274,-0.1373,-0.1373,-0.1373,0,-0.1589,-0.1558,-0.1567,-0.1541,-0.153,-0.1549,-0.1518,-0.1509,-0.1491,-0.1482,-0.1497,-0.1449,-0.1441,-0.1396,-0.1381,-0.1372,-0.1362,-0.138,-0.1312,-0.1305,-0.1299,-0.1278,-0.1269,-0.1371,-0.1371,-0.1371,-0.1371,0,-0.1522,-0.1499,-0.1476,-0.146,-0.1447,-0.1418,-0.1421,-0.1406,-0.1413,-0.1412,-0.1375,-0.1366,-0.1343,-0.1333,-0.1339,-0.1288,-0.1296,-0.1311,-0.1338,-0.1288,-0.1268,-0.126,-0.1368,-0.1368,-0.1369,-0.137,0,0,-0.1446,-0.1435,-0.1426,-0.1418,-0.1407,-0.1388,-0.1359,-0.1339,-0.1325,-0.1311,-0.1287,-0.1253,-0.1267,-0.1255,-0.1259,-0.1237,-0.1187,-0.1254,-0.1254,-0.1242,-0.1129,-0.1118,-0.1108,-0.1194,-0.1193,-0.1192,-0.113,0,-0.139,-0.1343,-0.1349,-0.1303,-0.1281,-0.1298,-0.1272,-0.1261,-0.1259,-0.1239,-0.1235,-0.1212,-0.1232,-0.1224,-0.1203,-0.1198,-0.1165,-0.1202,-0.117,-0.1168,-0.1173,-0.1098,-0.1086,-0.1029,-0.1122,-0.1121,-0.112,0,-0.1319,-0.1304,-0.1256,-0.1246,-0.1237,-0.1215,-0.1196,-0.1177,-0.1163,-0.1163,-0.1149,-0.1157,-0.1126,-0.1153,-0.1109,-0.1134,-0.1121,-0.1116,-0.1114,-0.1111,-0.1142,-0.1093,-0.1011,-0.1002,-0.1108,-0.1109,-0.111,0,-0.1268,-0.1235,-0.1202,-0.1195,-0.1183,-0.1167,-0.1161,-0.1149,-0.1136,-0.1118,-0.1109,-0.1088,-0.1076,-0.1057,-0.1058,-0.1078,-0.1013,-0.104,-0.1011,-0.1011,-0.0997,-0.0998,-0.0912,-0.0988,-0.0988,-0.0988,-0.0989,0,-0.1205,-0.1175,-0.1179,-0.1159,-0.1125,-0.1131,-0.1097,-0.1092,-0.1081,-0.1059,-0.107,-0.1048,-0.1051,-0.1028,-0.1028,-0.0991,-0.0986,-0.0983,-0.0984,-0.0982,-0.0983,-0.0974,-0.0978,-0.0986,-0.0987,-0.0987,-0.0987,0,-0.1143,-0.1145,-0.111,-0.1101,-0.1098,-0.1073,-0.1065,-0.1045,-0.1043,-0.1014,-0.1008,-0.1004,-0.0978,-0.0977,-0.0946,-0.0946,-0.0901,-0.0906,-0.0906,-0.0907,-0.0877,-0.088,-0.0782,-0.077,-0.0855,-0.0854,-0.0853,0,-0.1103,-0.108,-0.1069,-0.1056,-0.1049,-0.1027,-0.1014,-0.1019,-0.1004,-0.0986,-0.0967,-0.0942,-0.0923,-0.0879,-0.0872,-0.0848,-0.0852,-0.082,-0.0849,-0.0848,-0.0851,-0.0853,-0.085,-0.0814,-0.0813,-0.0813,-0.0812,0,-0.1031,-0.1033,-0.1015,-0.0996,-0.098,-0.0965,-0.0951,-0.0938,-0.0941,-0.0923,-0.0898,-0.0882,-0.0851,-0.0825,-0.0802,-0.0793,-0.0802,-0.0803,-0.0795,-0.0793,-0.0794,-0.0793,-0.0891,-0.0805,-0.0806,-0.0806,-0.0807,-0.0807,-0.0979,-0.0959,-0.0949,-0.0927,-0.0917,-0.0903,-0.0884,-0.0879,-0.0858,-0.0835,-0.0838,-0.0809,-0.0793,-0.0763,-0.0752,-0.0727,-0.0738,-0.0727,-0.0724,-0.0721,-0.0717,-0.0798,-0.0723,-0.0723,-0.0723,-0.0724,-0.0724,0,-0.0908,-0.0902,-0.0882,-0.0862,-0.0845,-0.0856,-0.0841,-0.0825,-0.0799,-0.0785,-0.0766,-0.0735,-0.0709,-0.07,-0.0675,-0.0657,-0.066,-0.065,-0.0652,-0.0649,-0.0709,-0.0719,-0.0648,-0.0648,-0.0648,-0.0648,-0.0648,-0.0648,-0.0869,-0.0836,-0.0836,-0.0797,-0.0791,-0.0763,-0.0753,-0.074,-0.0729,-0.0694,-0.0674,-0.0669,-0.0656,-0.063,-0.0606,-0.0604,-0.0594,-0.0582,-0.0581,-0.0637,-0.0645,-0.0652,-0.0661,-0.058,-0.0579,-0.0523,-0.0522,-0.0522]},{"header":{"parameterUnit":"m.s-1","parameterCategory":1,"la1":30.2991,"la2":30.254,"lo1":-89.0895,"lo2":-89.0444,"dy":0.0017,"dx":0.0017,"nx":28,"ny":28,"refTime":"2024-11-25T03:00:00:Z","depth":0,"parameterNumber":3,"parameterNumberName":"V-component_of_WINDS"},"data":[0,0,0,0,0,0,0,0,0,0,0,0,0,0,0,0,0,0,0,0,0,0,0,0,0,0,0,0,0,0,0,0,0,0,0,0,0,0,0,0,0,0,0,0,0,0,0,0,0,0,0,0,0,0,0,0,0,0,1.6852,1.6853,0,1.6947,1.6949,1.695,1.6934,1.6932,1.693,1.6929,1.7031,1.7035,1.704,0,0,0,0,0,0,0,0,0,0,0,0,0,1.666,1.6663,1.6852,1.6853,1.6854,1.6947,1.6949,1.695,1.6934,1.6932,1.693,1.6928,1.703,1.7035,1.704,0,0,0,0,0,0,0,0,0,0,0,0,0,1.6748,1.6664,1.6851,1.6857,1.6859,1.6947,1.6949,1.695,1.6935,1.6932,1.6929,1.6927,1.7028,1.7034,1.7041,1.7131,0,0,1.706,1.7063,0,0,0,0,0,0,0,0,1.6743,1.6755,1.6855,1.6857,1.6859,1.6926,1.6918,1.7011,1.6935,1.6906,1.6929,1.6926,1.6999,1.7007,1.7031,1.7135,1.714,1.7061,1.7065,1.7068,1.707,0,0,0,0,0,0,0,1.6737,1.6751,1.689,1.6857,1.6859,1.6857,1.6866,1.6936,1.6965,1.6908,1.6907,1.6919,1.6999,1.7025,1.7033,1.7141,1.7061,1.7067,1.7071,1.7073,1.7327,1.733,0,0,0,0,0,0,1.6728,1.6746,1.6887,1.6893,1.6793,1.6862,1.6873,1.6907,1.6964,1.6971,1.6921,1.6918,1.7015,1.7026,1.7037,1.7147,1.7068,1.7074,1.7077,1.7324,1.7327,1.7331,0,0,0,0,0,0,1.6724,1.6741,1.6883,1.6819,1.6837,1.6868,1.6906,1.691,1.6936,1.6974,1.6979,1.6941,1.7013,1.7028,1.7108,1.715,1.7077,1.7082,1.7321,1.7325,1.7329,1.7368,0,0,0,0,0,0,1.6719,1.674,1.6773,1.682,1.684,1.6951,1.6909,1.6914,1.6946,1.6943,1.6994,1.7001,1.7013,1.7098,1.7114,1.7158,1.7087,1.7317,1.7323,1.7328,1.7363,1.7373,1.7381,0,0,0,0,0,1.6712,1.6781,1.6775,1.6792,1.6882,1.6953,1.6965,1.6976,1.695,1.6984,1.7009,1.6999,1.7143,1.7106,1.7124,1.7171,1.7314,1.7321,1.7327,1.7358,1.7371,1.7381,0,0,0,0,0,0,1.6739,1.6787,1.6781,1.6866,1.6906,1.695,1.6994,1.6988,1.7037,1.7032,1.7045,1.7057,1.7138,1.7162,1.7121,1.7262,1.7225,1.7236,1.7243,1.7255,1.7264,1.7257,1.7093,0,0,0,0,0,1.6755,1.6807,1.6846,1.6918,1.6938,1.6962,1.6994,1.6999,1.7041,1.7058,1.7088,1.713,1.7185,1.7221,1.7274,1.7366,1.7378,1.7407,1.7416,1.7424,1.7433,1.7485,1.7499,1.7352,1.7352,1.7352,0,0,1.6788,1.682,1.6853,1.6924,1.6955,1.701,1.6977,1.7036,1.7078,1.7067,1.7144,1.7168,1.7217,1.7303,1.7343,1.7326,1.7476,1.7432,1.7438,1.7443,1.7494,1.7508,1.752,1.7356,1.7355,1.7355,0,0,1.6877,1.6906,1.6969,1.7001,1.7048,1.7065,1.708,1.7126,1.7141,1.7218,1.7212,1.7263,1.7357,1.7392,1.7422,1.7526,1.7519,1.7543,1.7592,1.7643,1.7655,1.7665,1.7704,1.7717,1.7551,1.7552,1.7552,0,1.6912,1.6994,1.7003,1.7064,1.7096,1.7088,1.7153,1.7184,1.7247,1.727,1.725,1.7368,1.74,1.7496,1.7521,1.7546,1.7565,1.7537,1.7652,1.7662,1.7672,1.7709,1.7724,1.7554,1.7554,1.7554,1.7553,0,1.7036,1.7093,1.7139,1.7199,1.7236,1.7299,1.7319,1.7357,1.7359,1.7378,1.7458,1.7496,1.7557,1.758,1.7583,1.7677,1.7665,1.7648,1.7612,1.7689,1.7724,1.7738,1.7558,1.7557,1.7556,1.7556,0,0,1.7145,1.7209,1.7226,1.7253,1.7305,1.735,1.7414,1.7472,1.7505,1.7549,1.7603,1.7683,1.7668,1.7703,1.771,1.7755,1.7837,1.7733,1.7734,1.7752,1.7945,1.7959,1.7975,1.7832,1.7835,1.7837,1.7942,0,1.7239,1.7349,1.736,1.746,1.7514,1.7507,1.7563,1.7602,1.7622,1.7672,1.7694,1.7751,1.7726,1.7747,1.7791,1.7817,1.7876,1.781,1.7886,1.7888,1.7875,1.7993,1.8007,1.8103,1.7955,1.7958,1.7959,0,1.7364,1.7411,1.7516,1.7562,1.7585,1.7634,1.7689,1.7736,1.7782,1.7793,1.7832,1.7834,1.7901,1.7862,1.7957,1.7912,1.7943,1.7961,1.7965,1.7974,1.7929,1.8006,1.8134,1.8149,1.7981,1.7979,1.7978,0,1.7435,1.7524,1.7598,1.7622,1.7677,1.7712,1.7737,1.778,1.7815,1.7864,1.7887,1.7943,1.7975,1.802,1.8038,1.8007,1.8133,1.8094,1.8146,1.8146,1.8173,1.8171,1.831,1.8192,1.8192,1.8191,1.8191,0,1.754,1.7604,1.7631,1.7677,1.775,1.7762,1.7835,1.7858,1.7896,1.7948,1.7947,1.7996,1.8016,1.8069,1.8084,1.8161,1.8175,1.8188,1.8192,1.8189,1.8187,1.8211,1.8205,1.8195,1.8194,1.8194,1.8193,0,1.763,1.765,1.7731,1.7777,1.779,1.7842,1.7882,1.7928,1.7947,1.8013,1.8029,1.806,1.8123,1.8145,1.8222,1.8232,1.8322,1.8319,1.8306,1.8308,1.8359,1.8354,1.8518,1.8541,1.8406,1.8408,1.8409,0,1.7697,1.7746,1.7797,1.7831,1.7857,1.7912,1.7948,1.7963,1.8,1.8056,1.8096,1.8157,1.8208,1.8309,1.834,1.8399,1.8398,1.8452,1.8407,1.8404,1.8401,1.8398,1.8404,1.846,1.8462,1.8463,1.8464,0,1.7813,1.782,1.7871,1.7926,1.7968,1.8012,1.8055,1.8083,1.8105,1.8148,1.8211,1.825,1.8328,1.839,1.8451,1.8479,1.8476,1.8477,1.8493,1.8491,1.8482,1.8489,1.833,1.8474,1.8473,1.8472,1.8471,1.8471,1.7894,1.7938,1.7982,1.8039,1.8072,1.8113,1.8158,1.8183,1.8235,1.8299,1.8305,1.8374,1.842,1.8501,1.8532,1.8588,1.8574,1.8595,1.8601,1.8607,1.8611,1.8472,1.8599,1.8599,1.8599,1.8598,1.8598,0,1.8011,1.8039,1.8091,1.815,1.8196,1.8187,1.8235,1.8274,1.8334,1.8376,1.8426,1.85,1.8561,1.8597,1.8659,1.8697,1.8697,1.8713,1.8711,1.8718,1.862,1.8601,1.8711,1.8711,1.8711,1.8711,1.8711,1.8711,1.8077,1.8152,1.8165,1.8258,1.8286,1.8352,1.838,1.8418,1.8452,1.8534,1.8584,1.8607,1.8648,1.8713,1.8769,1.8778,1.8802,1.8819,1.8828,1.8736,1.8724,1.8713,1.8695,1.8824,1.8824,1.8921,1.8922,1.8922]}]]